[[{"header":{"parameterUnit":"m.s-1","parameterCategory":1,"la1":30.2991,"la2":30.254,"lo1":-89.0895,"lo2":-89.0444,"dy":0.0017,"dx":0.0017,"nx":28,"ny":28,"refTime":"2025-05-29T03:00:00:Z","depth":0,"parameterNumber":2,"parameterNumberName":"U-component_of_WINDS"},"data":[0,0,0,0,0,0,0,0,0,0,0,0,0,0,0,0,0,0,0,0,0,0,0,0,0,0,0,0,0,0,0,0,0,0,0,0,0,0,0,0,0,0,0,0,0,0,0,0,0,0,0,0,0,0,0,0,0,0,0.7634,0.7635,0,0.7768,0.777,0.7771,0.7848,0.7849,0.7849,0.7849,0.7981,0.7984,0.7987,0,0,0,0,0,0,0,0,0,0,0,0,0,0.7435,0.7438,0.7633,0.7635,0.7637,0.7768,0.777,0.7772,0.7848,0.7849,0.7849,0.7849,0.798,0.7983,0.7987,0,0,0,0,0,0,0,0,0,0,0,0,0,0.754,0.7439,0.7633,0.7691,0.7698,0.7768,0.777,0.7772,0.7848,0.7849,0.7849,0.785,0.7978,0.7983,0.7988,0.8009,0,0,0.8003,0.8005,0,0,0,0,0,0,0,0,0.7534,0.7547,0.7681,0.7687,0.7695,0.7792,0.7748,0.7851,0.7848,0.7791,0.7849,0.785,0.7917,0.7927,0.7951,0.8015,0.802,0.8003,0.8006,0.8008,0.8009,0,0,0,0,0,0,0,0.7527,0.7542,0.7687,0.7683,0.7691,0.7708,0.7723,0.7768,0.785,0.7796,0.7802,0.7817,0.7921,0.7946,0.7955,0.8022,0.8003,0.8007,0.801,0.8012,0.8108,0.8107,0,0,0,0,0,0,0.7511,0.7535,0.7682,0.7691,0.7614,0.7711,0.7728,0.776,0.7849,0.7864,0.7817,0.782,0.7938,0.7949,0.796,0.7989,0.8008,0.8013,0.8015,0.8108,0.8107,0.8107,0,0,0,0,0,0,0.7507,0.7524,0.7677,0.7615,0.7636,0.7714,0.7749,0.7763,0.7788,0.7865,0.7879,0.7828,0.7939,0.7953,0.7996,0.7994,0.8015,0.8019,0.8108,0.8108,0.8107,0.8048,0,0,0,0,0,0,0.7501,0.7521,0.7532,0.7614,0.7639,0.7713,0.7749,0.7765,0.7797,0.7803,0.788,0.7893,0.794,0.7988,0.8001,0.8001,0.8023,0.8109,0.8108,0.8107,0.805,0.8045,0.8041,0,0,0,0,0,0.7493,0.7509,0.7532,0.755,0.7654,0.7713,0.7726,0.7783,0.7797,0.7807,0.7856,0.789,0.7993,0.7992,0.8007,0.8009,0.8109,0.8108,0.8107,0.8052,0.8046,0.8041,0,0,0,0,0,0,0.7423,0.7521,0.7548,0.7592,0.7643,0.7726,0.7741,0.7775,0.7822,0.7825,0.7891,0.7907,0.7944,0.7981,0.7978,0.8033,0.8054,0.8056,0.8007,0.8002,0.7998,0.7988,0.8027,0,0,0,0,0,0.7413,0.7455,0.7537,0.7567,0.7592,0.7661,0.7689,0.7728,0.7784,0.7805,0.7858,0.7908,0.7952,0.7979,0.8024,0.8056,0.8072,0.8064,0.8059,0.8055,0.8056,0.8074,0.8071,0.8104,0.8104,0.8104,0,0,0.7392,0.7451,0.7473,0.7555,0.76,0.7639,0.768,0.772,0.7749,0.7811,0.7855,0.7895,0.7955,0.7993,0.8012,0.8024,0.805,0.8054,0.805,0.8054,0.8073,0.8069,0.8066,0.8104,0.8104,0.8104,0,0,0.7374,0.7423,0.7453,0.7497,0.7565,0.7611,0.7617,0.7695,0.7724,0.777,0.7816,0.785,0.7925,0.7965,0.7996,0.799,0.8023,0.8003,0.7979,0.7995,0.7992,0.799,0.7987,0.7985,0.8003,0.8003,0.8003,0,0.7339,0.7402,0.7464,0.7501,0.7535,0.7594,0.7623,0.7662,0.774,0.776,0.7774,0.7867,0.7912,0.7959,0.7958,0.7981,0.7989,0.7994,0.7988,0.7987,0.7986,0.7983,0.7982,0.8,0.8001,0.8001,0.8001,0,0.7355,0.7398,0.7413,0.7489,0.7524,0.7556,0.762,0.7648,0.7683,0.7726,0.777,0.7826,0.7882,0.7896,0.793,0.7947,0.7953,0.7976,0.8,0.7979,0.7977,0.7977,0.7996,0.7997,0.7998,0.7999,0,0,0.7298,0.7405,0.741,0.7444,0.7522,0.7555,0.7589,0.7645,0.7667,0.7718,0.7746,0.7807,0.7829,0.7864,0.7902,0.7917,0.7907,0.7939,0.7941,0.793,0.7927,0.7908,0.7906,0.7929,0.7929,0.7929,0.7921,0,0.729,0.7357,0.7412,0.7457,0.7496,0.7552,0.7581,0.763,0.7671,0.7708,0.7752,0.7793,0.782,0.7841,0.7858,0.7905,0.7907,0.7906,0.7954,0.7955,0.7937,0.7905,0.7886,0.7875,0.7921,0.7921,0.7921,0,0.7291,0.7341,0.739,0.7462,0.7481,0.7506,0.7561,0.7597,0.7652,0.7681,0.7718,0.7759,0.7794,0.7814,0.7863,0.7861,0.7884,0.7909,0.791,0.7916,0.7936,0.7909,0.7874,0.7871,0.7921,0.7921,0.7921,0,0.7243,0.7322,0.7361,0.7389,0.7474,0.749,0.7526,0.7583,0.7612,0.7659,0.7679,0.7729,0.7756,0.7792,0.7844,0.7854,0.7887,0.7911,0.7909,0.7908,0.7913,0.7912,0.788,0.7929,0.7929,0.7929,0.7929,0,0.7228,0.7256,0.7341,0.7365,0.7396,0.7457,0.7486,0.7526,0.7576,0.7607,0.7657,0.7684,0.7752,0.7786,0.7827,0.786,0.7872,0.7894,0.7905,0.7889,0.7886,0.7905,0.7906,0.7929,0.7929,0.7929,0.7929,0,0.718,0.7238,0.7284,0.7361,0.7381,0.74,0.7465,0.7489,0.7532,0.757,0.7582,0.7649,0.7692,0.7748,0.7808,0.7835,0.7863,0.788,0.7845,0.7851,0.7846,0.7845,0.7823,0.7822,0.7873,0.7872,0.7872,0,0.7167,0.719,0.7268,0.7293,0.7328,0.7368,0.7398,0.7458,0.7488,0.7552,0.7567,0.7615,0.7656,0.7722,0.7774,0.782,0.7838,0.7827,0.7845,0.7828,0.7836,0.7833,0.7835,0.7822,0.7821,0.782,0.782,0,0.7137,0.7164,0.7207,0.7259,0.7294,0.7338,0.7384,0.74,0.7469,0.7499,0.7545,0.7577,0.7638,0.7684,0.7737,0.7771,0.7806,0.7814,0.7816,0.78,0.7778,0.7788,0.7831,0.7814,0.7814,0.7815,0.7815,0.7815,0.7105,0.7127,0.7185,0.7231,0.7271,0.7312,0.7338,0.7384,0.7424,0.748,0.7512,0.7556,0.7608,0.7683,0.7716,0.7749,0.7763,0.7766,0.7766,0.7766,0.776,0.7773,0.7759,0.7759,0.776,0.776,0.776,0,0.7076,0.7116,0.7157,0.722,0.7255,0.7286,0.7337,0.7364,0.7402,0.7449,0.7488,0.7539,0.7583,0.7639,0.7686,0.7702,0.7719,0.7712,0.7711,0.7718,0.7746,0.7739,0.7697,0.7697,0.7697,0.7697,0.7697,0.7697,0.7065,0.7103,0.7137,0.7194,0.7233,0.7278,0.7304,0.7341,0.7379,0.7434,0.7471,0.7507,0.7557,0.7608,0.7649,0.7664,0.7678,0.7666,0.7685,0.7711,0.7716,0.7721,0.7715,0.7669,0.7669,0.7654,0.7654,0.7654]},{"header":{"parameterUnit":"m.s-1","parameterCategory":1,"la1":30.2991,"la2":30.254,"lo1":-89.0895,"lo2":-89.0444,"dy":0.0017,"dx":0.0017,"nx":28,"ny":28,"refTime":"2025-05-29T03:00:00:Z","depth":0,"parameterNumber":3,"parameterNumberName":"V-component_of_WINDS"},"data":[0,0,0,0,0,0,0,0,0,0,0,0,0,0,0,0,0,0,0,0,0,0,0,0,0,0,0,0,0,0,0,0,0,0,0,0,0,0,0,0,0,0,0,0,0,0,0,0,0,0,0,0,0,0,0,0,0,0,5.5835,5.5836,0,5.5904,5.5905,5.5906,5.5908,5.5907,5.5906,5.5905,5.5972,5.5974,5.5977,0,0,0,0,0,0,0,0,0,0,0,0,0,5.5699,5.5702,5.5835,5.5836,5.5837,5.5904,5.5905,5.5906,5.5908,5.5907,5.5906,5.5905,5.5971,5.5974,5.5977,0,0,0,0,0,0,0,0,0,0,0,0,0,5.5762,5.5703,5.5835,5.5846,5.5848,5.5904,5.5905,5.5906,5.5908,5.5907,5.5906,5.5904,5.597,5.5974,5.5977,5.6026,0,0,5.5989,5.5991,0,0,0,0,0,0,0,0,5.5759,5.5767,5.5844,5.5846,5.5848,5.5896,5.5882,5.5946,5.5908,5.5885,5.5905,5.5904,5.5947,5.5953,5.5969,5.6029,5.6032,5.5989,5.5992,5.5993,5.5994,0,0,0,0,0,0,0,5.5754,5.5764,5.5863,5.5845,5.5847,5.5846,5.5853,5.5894,5.5922,5.5887,5.5887,5.5896,5.5948,5.5965,5.597,5.6033,5.5989,5.5993,5.5995,5.5997,5.6133,5.6134,0,0,0,0,0,0,5.5748,5.5761,5.586,5.5865,5.5799,5.5849,5.5858,5.5882,5.5922,5.5927,5.5897,5.5896,5.5959,5.5966,5.5972,5.6029,5.5993,5.5997,5.5999,5.6131,5.6133,5.6134,0,0,0,0,0,0,5.5746,5.5757,5.5858,5.5813,5.5825,5.5853,5.588,5.5884,5.5901,5.5929,5.5934,5.5909,5.5958,5.5967,5.6012,5.6032,5.5999,5.6002,5.613,5.6132,5.6134,5.6145,0,0,0,0,0,0,5.5742,5.5756,5.5777,5.5813,5.5828,5.5898,5.5881,5.5886,5.5908,5.5907,5.5942,5.5946,5.5958,5.6006,5.6016,5.6036,5.6005,5.6128,5.6131,5.6133,5.6143,5.6147,5.6151,0,0,0,0,0,5.5737,5.5777,5.5778,5.579,5.5854,5.5899,5.5907,5.5921,5.5909,5.5929,5.5946,5.5945,5.6028,5.6011,5.6022,5.6044,5.6127,5.613,5.6133,5.6141,5.6146,5.615,0,0,0,0,0,0,5.5742,5.5782,5.5783,5.5837,5.5865,5.5899,5.5925,5.5926,5.5957,5.5955,5.5969,5.5977,5.602,5.6037,5.6017,5.6091,5.6076,5.6081,5.6078,5.6084,5.6087,5.6082,5.6008,0,0,0,0,0,5.5749,5.5784,5.5817,5.5861,5.5875,5.5897,5.5917,5.5925,5.5954,5.5965,5.5987,5.6013,5.6044,5.6065,5.6096,5.6145,5.6151,5.6165,5.6169,5.6172,5.6176,5.62,5.6206,5.6144,5.6144,5.6144,0,0,5.5764,5.5791,5.5812,5.5862,5.5885,5.5918,5.5907,5.5944,5.5968,5.597,5.6014,5.603,5.606,5.6107,5.6128,5.6121,5.6194,5.6176,5.6178,5.6181,5.6204,5.6209,5.6214,5.6146,5.6146,5.6145,0,0,5.5809,5.5834,5.5872,5.5894,5.5928,5.5942,5.5951,5.5986,5.5996,5.6041,5.6042,5.607,5.6126,5.6146,5.6164,5.6213,5.6212,5.6223,5.6242,5.6265,5.627,5.6274,5.6289,5.6295,5.6227,5.6227,5.6227,0,5.5823,5.5876,5.5891,5.5927,5.5947,5.5952,5.5988,5.6009,5.6051,5.6064,5.6056,5.6124,5.6145,5.6194,5.6206,5.6221,5.6229,5.6218,5.6269,5.6273,5.6277,5.6291,5.6297,5.6228,5.6228,5.6227,5.6227,0,5.589,5.5926,5.5952,5.5993,5.6016,5.6053,5.6071,5.6093,5.6098,5.6112,5.6155,5.618,5.6214,5.6227,5.6233,5.6277,5.6271,5.6266,5.6251,5.6284,5.6297,5.6303,5.6229,5.6229,5.6228,5.6228,0,0,5.594,5.5987,5.5996,5.6013,5.605,5.6077,5.6112,5.6147,5.6164,5.6192,5.622,5.6265,5.626,5.628,5.6287,5.6308,5.6341,5.63,5.63,5.6304,5.6388,5.639,5.6397,5.6341,5.6343,5.6344,5.6384,0,5.5987,5.6051,5.6064,5.6118,5.6149,5.6153,5.6183,5.6207,5.6221,5.6248,5.6262,5.6293,5.6285,5.6297,5.6318,5.6333,5.6358,5.6331,5.6365,5.6366,5.6355,5.6404,5.6407,5.6445,5.639,5.6391,5.6392,0,5.605,5.608,5.6137,5.6167,5.6181,5.6208,5.6239,5.6266,5.6292,5.63,5.6321,5.6326,5.636,5.6344,5.6389,5.637,5.6384,5.6394,5.6395,5.6398,5.638,5.6406,5.6458,5.6462,5.6401,5.64,5.6399,0,5.6078,5.6132,5.6172,5.6187,5.6224,5.6242,5.6258,5.6283,5.6302,5.6329,5.6341,5.6371,5.6387,5.6409,5.642,5.6409,5.6463,5.6449,5.6469,5.6468,5.6479,5.6478,5.6532,5.6492,5.6492,5.6492,5.6492,0,5.6127,5.6161,5.6185,5.621,5.6247,5.6261,5.6297,5.6312,5.6334,5.636,5.6365,5.6389,5.6404,5.6429,5.6438,5.6472,5.648,5.6485,5.6487,5.6484,5.6483,5.6493,5.649,5.6493,5.6493,5.6493,5.6492,0,5.6164,5.6181,5.6225,5.6256,5.6264,5.629,5.6315,5.6338,5.6351,5.6384,5.6392,5.6412,5.6442,5.6456,5.6493,5.6499,5.6536,5.6537,5.6528,5.6528,5.6546,5.6543,5.6606,5.6614,5.6571,5.6571,5.6571,0,5.6194,5.622,5.6253,5.6271,5.6287,5.6317,5.6336,5.635,5.6369,5.64,5.6418,5.6448,5.6473,5.6519,5.6536,5.6563,5.6564,5.6584,5.6568,5.6563,5.6561,5.6558,5.656,5.6586,5.6587,5.6587,5.6587,0,5.6243,5.625,5.6278,5.6309,5.6332,5.6356,5.638,5.6394,5.6411,5.6432,5.6463,5.6482,5.6519,5.6548,5.6576,5.659,5.659,5.6592,5.6598,5.6594,5.6587,5.6588,5.6533,5.6591,5.659,5.659,5.659,5.659,5.6276,5.6298,5.6324,5.6355,5.6374,5.6396,5.6418,5.6434,5.646,5.6492,5.6498,5.6529,5.6552,5.659,5.6605,5.6628,5.6623,5.6632,5.6634,5.6635,5.6635,5.6584,5.6634,5.6634,5.6634,5.6634,5.6633,0,5.6324,5.634,5.6368,5.6401,5.6424,5.6424,5.645,5.6469,5.6497,5.6519,5.6543,5.6577,5.6604,5.6622,5.6649,5.6664,5.6665,5.6671,5.6669,5.6671,5.6639,5.6631,5.6669,5.6669,5.6669,5.6669,5.6669,5.6669,5.6351,5.6388,5.6398,5.6443,5.6459,5.6491,5.6505,5.6524,5.6542,5.6579,5.6602,5.6614,5.6634,5.6662,5.6686,5.669,5.6699,5.6705,5.6708,5.6678,5.6674,5.667,5.6662,5.6707,5.6707,5.6738,5.6739,5.6739]}]]